Location: Dead Woman Crossing
(43.5369°N, 106.3228°W)
Time: 16:27:12
(UTC+00:00)

O/OREOS (USA 219) - Pass Details

Date: 05 July 2022
Orbit: 621 x 646 km, 72.0° (Epoch: 22 May)

Event Time Altitude Azimuth Distance (km) Brightness Sun altitude
Rises 05:23:37 0° 349° (N) 2,965 ? -19.3°
Reaches altitude 10° 05:26:36 10° 9° (N) 2,053 ? -19.6°
Maximum altitude 05:29:44 18° 52° (NE) 1,596 ? -19.8°
Enters shadow 05:32:04 13° 87° (E) 1,861 ? -20.0°
